Find Yaogan 31 hao 04 zu 01 xing

NORAD ID: 47854 Int'l Des: 2021-020 Owner: ZLZB Country: CN Constellation: yaogan operational
LEO

現在のビュー

3D地球を読み込み中...

Yaogan 31 hao 04 zu 01 xingについて

説明を読み込み中...

次回通過

Passes for default location (London). Set your location on the main map for personalized predictions.

高度履歴

Loading altitude history...

軌道要素

1 47854U 21020A 26149.65262087 -.00000110 00000-0 -30747-4 0 9990
2 47854 63.4062 305.6224 0173345 0.4557 359.6597 13.45446109255976
Epoch: May 29, 2026 • Age: 16 hours

現在のステータス

高度 1138.5 km
速度 7.27 km/s
衛星直下点 -60.91°S, 168.6°W
打ち上げ日 Mar 13, 2021
運用期間 5.2 years
タイプ military

技術仕様

分類 Payload
質量 500.00 kg
乾燥質量 500.00 kg
総質量 500.00 kg
長さ 0.50 m
直径 0.50 m
スパン 1.00 m
形状 Box + 2 Pan
製造者 DFHZ
バスタイプ JB-8B
フェーズステータス In Orbit
所有者/国 ZLZB/CN

Most Searched